Location: A O Calhoun Middle School
(33.2198°N, 97.1397°W)
Time: 13:58:28
(UTC+00:00)

ADEOS - Pass Details

Date: 08 December 2021
Orbit: 792 x 795 km, 98.9° (Epoch: 25 January)

Event Time Altitude Azimuth Distance (km) Brightness Sun altitude
Rises 12:35:14 0° 3° (N) 3,300 6.6 -9.4°
Reaches altitude 10° 12:37:42 10° 355° (N) 2,366 5.8 -8.9°
Maximum altitude 12:42:28 37° 289° (WNW) 1,213 4.1 -8.0°
Drops below altitude 10° 12:47:13 10° 223° (SW) 2,352 5.8 -7.0°
Sets 12:49:40 0° 215° (SW) 3,277 6.6 -6.6°
